Observations for Trim Patrick St
| Time | AQI | Temp °C | Hum % | Pres Pa | CO μg/m³ | H₂S μg/m³ | NO μg/m³ | NO₂ μg/m³ | O₃ μg/m³ | SO₂ μg/m³ | PM1 μg/m³ | PM2.5 μg/m³ | PM10 μg/m³ |
|---|---|---|---|---|---|---|---|---|---|---|---|---|---|
| Thursday 6 August 2026 | |||||||||||||
| 13:11 | 2 | 25.2 | 38 | 68,863 | 0 | 0 | 2.03 | 9.15 | 77.9 | 8.8 | 2 | 7.18 | 7.89 |
| 13:10 | 2 | 25.3 | 37 | 68,863 | 0 | 1.32 | 2.07 | 9 | 73.74 | 8.96 | 2 | 7.21 | 7.93 |
| 13:09 | 2 | 25.3 | 39 | 68,861 | 0 | 1.88 | 1.76 | 9.68 | 99.38 | 8.63 | 2 | 7.12 | 7.83 |
| 13:08 | 2 | 25.3 | 38 | 68,859 | 0 | 2.36 | 1.72 | 9.53 | 84.21 | 9.06 | 2 | 7.19 | 7.91 |
| 13:07 | 2 | 25.3 | 38 | 68,886 | 0 | 5.71 | 1.79 | 9.6 | 106.83 | 9.66 | 2 | 7.94 | 8.73 |
| 13:06 | 2 | 25.4 | 38 | 68,892 | 0 | 5.99 | 2.09 | 9.58 | 98.9 | 10.31 | 2 | 7.2 | 7.92 |
| 13:05 | 2 | 25.5 | 38 | 68,875 | 0 | 4.61 | 2.06 | 9.68 | 100.7 | 10.19 | 2 | 7.18 | 7.9 |
| 13:04 | 2 | 25.6 | 37 | 68,906 | 0 | 4.25 | 2.11 | 9.28 | 82.55 | 10.33 | 2 | 7.21 | 7.93 |
| 13:03 | 2 | 25.7 | 38 | 68,918 | 0 | 7.47 | 2.08 | 10.33 | 104.13 | 10.03 | 2 | 7.19 | 7.91 |
| 13:02 | 2 | 25.7 | 37 | 68,902 | 0 | 3.08 | 2.11 | 10.78 | 92.94 | 9.61 | 2.86 | 8.02 | 8.83 |
| 13:01 | 2 | 25.8 | 36 | 68,910 | 0 | 0 | 2.16 | 9.65 | 86.9 | 9.43 | 2 | 7.28 | 8.01 |
| 13:00 | 2 | 25.9 | 36 | 68,928 | 0 | 0 | 2.16 | 8.7 | 80.75 | 9.07 | 2 | 8.12 | 8.93 |
| 12:59 | 2 | 26 | 35 | 68,943 | 0 | 0 | 2.2 | 8.19 | 93.79 | 10.01 | 2 | 7.35 | 8.08 |
| 12:58 | 2 | 26.1 | 36 | 68,932 | 0 | 0 | 2.13 | 8.58 | 72.08 | 9.33 | 2 | 7.3 | 8.03 |
| 12:57 | 2 | 26.1 | 35 | 68,918 | 0 | 0 | 2.23 | 4.84 | 71.53 | 9.21 | 2 | 7.37 | 8.1 |
| 12:56 | 2 | 26.2 | 35 | 68,932 | 0 | 0 | 2.14 | 8.56 | 81.25 | 9.13 | 2 | 8.17 | 8.99 |
| 12:55 | 2 | 26.2 | 35 | 68,939 | 0 | 0 | 2.17 | 7.16 | 70.35 | 7.55 | 2 | 8.14 | 8.96 |
| 12:54 | 2 | 26.2 | 36 | 68,955 | 0 | 0 | 2.06 | 5.52 | 72.53 | 9.67 | 2 | 7.29 | 8.02 |
| 12:53 | 2 | 26.2 | 36 | 68,945 | 0 | 0 | 2.06 | 8.28 | 82.11 | 8.99 | 2 | 7.29 | 8.02 |
| 12:52 | 2 | 26.2 | 36 | 68,935 | 0 | 0 | 2.1 | 7.09 | 72.29 | 8.98 | 2 | 7.3 | 8.03 |